(336951) = 2005 YN258 = 2011 HG83

Discovered at Kitt Peak on 2005-12-22 by Spacewatch.

Orbit

Orbit type: Main Belt

Note: WebGL enabled browser required.

epoch2024-03-31.0
epoch JD2460400.5
perihelion date2020-03-06.35371
perihelion JD2458914.85372
argument of perihelion (°)332.44518
ascending node (°)263.75938
inclination (°)2.88241
eccentricity0.1818771
perihelion distance (AU)2.1711614
Tisserand w.r.t. Jupiter3.4
ΔV w.r.t. Earth (km/sec)9.3
semimajor axis (AU)2.6538329
mean anomaly (°)338.69528
mean daily motion (°/day)0.22797840
aphelion distance (AU)3.137
period (years)4.32
P-vector [x]-0.55564774
P-vector [y]-0.75325910
P-vector [z]-0.35193227
Q-vector [x]0.82991371
Q-vector [y]-0.52795254
Q-vector [z]-0.18030352
absolute magnitude16.91
phase slope0.15
uncertainty0
referenceE2024-G51
observations used185
oppositions13
arc length (days)7579
first opposition used2003
last opposition used2024
residual rms (arc-secs)0.84
perturbers coarse indicatorM-v
perturbers precise indicator003Ek
first observation date used2003-07-05.0
last observation date used2024-04-04.0
computer nameMPCLINUX
JD of orbit computation2456639.841415
perihelion JD uncertainty (days)1.2935E-04
argument of perihelion uncertainty (°)2.2822E-04
ascending node uncertainty (°)2.2644E-04
inclination uncertainty (°)8.2804E-06
eccentricity uncertainty 8.2996E-08
perihelion distance uncertainty (AU)2.1649E-07
Minimum Orbit Intersection Distances (in AU)
for orbit epoch: 2460400.5, reference: E2024-G51
Mercury1.70973
Venus1.44755
Earth1.15993
Mars0.61169
Jupiter1.86954
Saturn5.95461
Uranus15.8419
Neptune26.7119

Observations

193 total observations over interval: 2003 07 05.38166 – 2023 12 25.659296
These data are available for download (format description).

Date (UT) J2000 RA J2000 Dec Magn Location Ref
2003 07 05.38166 21 32 22.65 -11 21 53.0 21.0 V 691 – Steward Observatory, Kitt Peak-Spacewatch MPS 387022
2003 07 05.40960 21 32 21.89 -11 21 53.4 21.0 V 691 – Steward Observatory, Kitt Peak-Spacewatch MPS 387022
2003 07 05.43752 21 32 21.12 -11 21 53.7 21.2 V 691 – Steward Observatory, Kitt Peak-Spacewatch MPS 387022
2005 12 22.45368 08 29 57.03 +16 50 03.5 21.3 V 691 – Steward Observatory, Kitt Peak-Spacewatch MPS 159205
2005 12 22.47097 08 29 56.44 +16 50 04.5 21.2 V 691 – Steward Observatory, Kitt Peak-Spacewatch MPS 159205
2005 12 22.48824 08 29 55.87 +16 50 05.0 20.9 V 691 – Steward Observatory, Kitt Peak-Spacewatch MPS 159205
2006 01 09.37206 08 16 28.66 +17 14 19.3 21.3 V 691 – Steward Observatory, Kitt Peak-Spacewatch MPS 159205
2006 01 09.38938 08 16 27.68 +17 14 20.9 21.4 V 691 – Steward Observatory, Kitt Peak-Spacewatch MPS 159205
2006 01 09.40670 08 16 26.72 +17 14 22.9 21.0 V 691 – Steward Observatory, Kitt Peak-Spacewatch MPS 159205
2006 01 23.29720 08 02 52.26 +17 43 46.9 20.5 V G96 – Mt. Lemmon Survey MPS 387022
2006 01 23.30501 08 02 51.75 +17 43 47.8 20.5 V G96 – Mt. Lemmon Survey MPS 387022
2006 01 23.31280 08 02 51.21 +17 43 49.7 20.1 V G96 – Mt. Lemmon Survey MPS 387022
2006 01 23.32058 08 02 50.82 +17 43 50.1 19.9 V G96 – Mt. Lemmon Survey MPS 387022
2006 02 04.24831 07 51 17.92 +18 09 38.3 20.6 V G96 – Mt. Lemmon Survey MPS 387022
2006 02 04.25389 07 51 17.64 +18 09 39.2 21.2 V G96 – Mt. Lemmon Survey MPS 387022
2006 02 04.25944 07 51 17.31 +18 09 39.7 20.9 V G96 – Mt. Lemmon Survey MPS 387022
2006 02 04.26508 07 51 17.02 +18 09 40.5 20.9 V G96 – Mt. Lemmon Survey MPS 387022
2008 09 23.30517 01 30 33.02 +13 37 05.4 21.2 V 691 – Steward Observatory, Kitt Peak-Spacewatch MPS 387022
2008 09 23.32279 01 30 32.24 +13 37 01.2 21.0 V 691 – Steward Observatory, Kitt Peak-Spacewatch MPS 387022
2008 09 23.34042 01 30 31.44 +13 36 57.2 21.1 V 691 – Steward Observatory, Kitt Peak-Spacewatch MPS 387022
2011 03 28.32198 13 51 03.85 -16 12 00.0 19.7 V 703 – Catalina Sky Survey MPS 387022
2011 03 28.32958 13 51 03.60 -16 11 57.1 20.0 V 703 – Catalina Sky Survey MPS 387022
2011 03 28.33723 13 51 03.42 -16 11 57.1 19.9 V 703 – Catalina Sky Survey MPS 387022
2011 03 28.34484 13 51 03.16 -16 11 56.6 19.8 V 703 – Catalina Sky Survey MPS 387022
2011 04 08.65784 13 43 16.46 -15 30 17.1 19.7 V E12 – Siding Spring Survey MPS 387022
2011 04 08.68941 13 43 14.88 -15 30 08.0 19.4 V E12 – Siding Spring Survey MPS 387022
2011 04 08.70510 13 43 14.08 -15 30 03.7 19.8 V E12 – Siding Spring Survey MPS 387022
2011 04 28.34354 13 27 19.518 -13 41 36.84 19.8 w F51 – Pan-STARRS 1, Haleakala MPS 382361
2011 04 28.35762 13 27 18.839 -13 41 31.87 19.7 w F51 – Pan-STARRS 1, Haleakala MPS 382361
2011 04 28.37186 13 27 18.148 -13 41 26.73 19.7 w F51 – Pan-STARRS 1, Haleakala MPS 382361
2011 04 28.38597 13 27 17.464 -13 41 21.69 19.6 w F51 – Pan-STARRS 1, Haleakala MPS 382361
2011 05 08.24588 13 20 39.73 -12 44 35.5 19.8 V 703 – Catalina Sky Survey MPS 382361
2011 05 08.25108 13 20 39.51 -12 44 34.2 20.1 V 703 – Catalina Sky Survey MPS 382361
2011 05 08.25630 13 20 39.37 -12 44 31.0 19.8 V 703 – Catalina Sky Survey MPS 382361
2011 05 08.26152 13 20 39.15 -12 44 31.2 19.6 V 703 – Catalina Sky Survey MPS 382361
2012 08 10.37440 23 58 48.54 +04 20 30.2 20.9 V 691 – Steward Observatory, Kitt Peak-Spacewatch MPS 429054
2012 08 10.39214 23 58 48.20 +04 20 28.4 20.7 V 691 – Steward Observatory, Kitt Peak-Spacewatch MPS 429054
2012 08 10.40986 23 58 47.72 +04 20 27.9 21.3 V 691 – Steward Observatory, Kitt Peak-Spacewatch MPS 429054
2012 08 24.33915 23 51 23.89 +03 48 19.6 20.9 V 691 – Steward Observatory, Kitt Peak-Spacewatch MPS 430146
2012 08 24.35686 23 51 23.07 +03 48 15.8 20.6 V 691 – Steward Observatory, Kitt Peak-Spacewatch MPS 430146
2012 08 24.37456 23 51 22.39 +03 48 12.6 20.9 V 691 – Steward Observatory, Kitt Peak-Spacewatch MPS 430146
2012 09 16.15712 23 33 14.41 +02 00 33.0 21.0 V 691 – Steward Observatory, Kitt Peak-Spacewatch MPS 433295
2012 09 16.17506 23 33 13.52 +02 00 27.1 20.9 V 691 – Steward Observatory, Kitt Peak-Spacewatch MPS 433295
2012 09 16.19301 23 33 12.54 +02 00 21.1 20.6 V 691 – Steward Observatory, Kitt Peak-Spacewatch MPS 433295
2012 09 19.19072 23 30 40.12 +01 43 21.5 20.2 R H15 – ISON-NM Observatory, Mayhill MPS 433295
2012 09 19.20540 23 30 39.43 +01 43 17.2 20.0 R H15 – ISON-NM Observatory, Mayhill MPS 433295
2012 09 19.22010 23 30 38.73 +01 43 11.4 20.3 R H15 – ISON-NM Observatory, Mayhill MPS 433295
2013 11 26.26499 04 37 46.92 +23 12 09.9 21.2 V G96 – Mt. Lemmon Survey MPS 489875
2013 11 26.27686 04 37 46.20 +23 12 08.4 21.3 V G96 – Mt. Lemmon Survey MPS 489875
2013 11 26.28824 04 37 45.57 +23 12 06.7 20.9 V G96 – Mt. Lemmon Survey MPS 489875
2013 11 26.29962 04 37 44.88 +23 12 05.1 21.0 V G96 – Mt. Lemmon Survey MPS 489875
2015 01 19.52069 10 59 43.335 +02 20 54.05 20.9 w F51 – Pan-STARRS 1, Haleakala MPS 567133
2015 01 19.54772 10 59 43.002 +02 20 52.70 21.2 w F51 – Pan-STARRS 1, Haleakala MPS 567133
2015 01 19.56130 10 59 42.815 +02 20 52.17 20.8 w F51 – Pan-STARRS 1, Haleakala MPS 567133
2015 02 10.34767 10 49 48.72 +02 44 18.1 19.8 V 703 – Catalina Sky Survey MPS 579810
2015 02 10.35170 10 49 48.51 +02 44 18.5 20.4 V 703 – Catalina Sky Survey MPS 579810
2015 02 10.35574 10 49 48.39 +02 44 19.6 20.1 V 703 – Catalina Sky Survey MPS 579810
2015 02 10.35978 10 49 48.13 +02 44 18.4 20.8 V 703 – Catalina Sky Survey MPS 579810
2015 02 15.41646 10 45 59.463 +03 00 50.21 20.2 w F51 – Pan-STARRS 1, Haleakala MPS 583032
2015 02 15.42881 10 45 58.850 +03 00 52.77 20.3 w F51 – Pan-STARRS 1, Haleakala MPS 583032
2015 02 15.44114 10 45 58.233 +03 00 55.61 20.4 w F51 – Pan-STARRS 1, Haleakala MPS 583032
2015 02 15.45347 10 45 57.611 +03 00 58.36 20.2 w F51 – Pan-STARRS 1, Haleakala MPS 583032
2015 03 14.36329 10 22 31.251 +05 07 48.24 20.2 w F51 – Pan-STARRS 1, Haleakala MPS 591984
2015 03 14.37537 10 22 30.644 +05 07 51.92 20.1 w F51 – Pan-STARRS 1, Haleakala MPS 591984
2015 03 14.38753 10 22 30.028 +05 07 55.62 20.1 w F51 – Pan-STARRS 1, Haleakala MPS 591984
2015 03 14.39965 10 22 29.410 +05 07 59.21 20.1 w F51 – Pan-STARRS 1, Haleakala MPS 591984
2015 03 15.23706 10 21 49.36 +05 12 08.6 20.6 r G45 – Space Surveillance Telescope, Atom Site MPS 597543
2015 03 15.25085 10 21 48.65 +05 12 12.7 20.2 r G45 – Space Surveillance Telescope, Atom Site MPS 597543
2015 03 15.25624 10 21 48.45 +05 12 14.0 20.1 r G45 – Space Surveillance Telescope, Atom Site MPS 597543
2015 03 15.26062 10 21 48.17 +05 12 15.4 19.7 r G45 – Space Surveillance Telescope, Atom Site MPS 597543
2015 03 15.37624 10 21 42.750 +05 12 51.02 20.1 w F51 – Pan-STARRS 1, Haleakala MPS 591984
2015 03 15.37694 10 21 42.719 +05 12 51.16 20.1 w F51 – Pan-STARRS 1, Haleakala MPS 591984
2015 03 15.38860 10 21 42.140 +05 12 54.71 20.0 w F51 – Pan-STARRS 1, Haleakala MPS 591984
2015 03 15.38926 10 21 42.107 +05 12 54.85 20.2 w F51 – Pan-STARRS 1, Haleakala MPS 591984
2015 03 15.40094 10 21 41.527 +05 12 58.33 20.1 w F51 – Pan-STARRS 1, Haleakala MPS 591984
2015 03 15.41393 10 21 40.881 +05 13 02.12 20.2 w F51 – Pan-STARRS 1, Haleakala MPS 591984
2015 03 24.30333 10 15 25.06 +05 54 31.6 20.8 r G45 – Space Surveillance Telescope, Atom Site MPS 600493
2015 03 24.31374 10 15 24.59 +05 54 34.2 20.3 r G45 – Space Surveillance Telescope, Atom Site MPS 600493
2015 03 24.32203 10 15 24.32 +05 54 36.0 20.4 r G45 – Space Surveillance Telescope, Atom Site MPS 600493
2015 03 24.33045 10 15 23.95 +05 54 38.0 19.8 r G45 – Space Surveillance Telescope, Atom Site MPS 600493
2015 03 24.34073 10 15 23.61 +05 54 42.1 20.5 r G45 – Space Surveillance Telescope, Atom Site MPS 600493
2015 03 24.34871 10 15 23.27 +05 54 43.8 20.2 r G45 – Space Surveillance Telescope, Atom Site MPS 600493
2015 03 24.60717 10 15 14.17 +05 55 49.4 20.1 R D29 – Purple Mountain Observatory, XuYi Station MPS 595017
2015 03 24.62128 10 15 13.64 +05 55 52.7 20.7 R D29 – Purple Mountain Observatory, XuYi Station MPS 595017
2015 03 27.22058 10 13 44.81 +06 06 38.9 21.2 V 703 – Catalina Sky Survey MPS 595017
2015 03 27.22662 10 13 44.68 +06 06 40.3 20.5 V 703 – Catalina Sky Survey MPS 595017
